[[{"header":{"parameterUnit":"m.s-1","parameterCategory":1,"la1":30.2991,"la2":30.254,"lo1":-89.0895,"lo2":-89.0444,"dy":0.0017,"dx":0.0017,"nx":28,"ny":28,"refTime":"2024-07-30T03:00:00:Z","depth":0,"parameterNumber":2,"parameterNumberName":"U-component_of_WINDS"},"data":[0,0,0,0,0,0,0,0,0,0,0,0,0,0,0,0,0,0,0,0,0,0,0,0,0,0,0,0,0,0,0,0,0,0,0,0,0,0,0,0,0,0,0,0,0,0,0,0,0,0,0,0,0,0,0,0,0,0,1.7639,1.7641,0,1.7824,1.7826,1.7828,1.7865,1.7864,1.7862,1.7861,1.8054,1.8061,1.8067,0,0,0,0,0,0,0,0,0,0,0,0,0,1.732,1.7325,1.7639,1.7641,1.7644,1.7824,1.7826,1.7829,1.7865,1.7863,1.7862,1.786,1.8052,1.806,1.8068,0,0,0,0,0,0,0,0,0,0,0,0,0,1.7477,1.7327,1.7639,1.7683,1.7689,1.7823,1.7826,1.7829,1.7866,1.7863,1.7861,1.7859,1.805,1.8059,1.8069,1.8172,0,0,1.8099,1.8103,0,0,0,0,0,0,0,0,1.7468,1.7489,1.7675,1.7681,1.7687,1.7819,1.7785,1.7944,1.7866,1.7799,1.7861,1.7858,1.7978,1.7994,1.8033,1.8181,1.819,1.8099,1.8105,1.811,1.8112,0,0,0,0,0,0,0,1.7457,1.7481,1.7712,1.7677,1.7685,1.7695,1.7715,1.7815,1.7899,1.7805,1.7808,1.7829,1.7981,1.8024,1.8038,1.8192,1.8099,1.8108,1.8114,1.8118,1.8432,1.8434,0,0,0,0,0,0,1.7438,1.7472,1.7706,1.7718,1.757,1.7702,1.7725,1.7779,1.7897,1.7913,1.783,1.783,1.8008,1.8027,1.8045,1.8172,1.811,1.8119,1.8124,1.843,1.8433,1.8435,0,0,0,0,0,0,1.7431,1.7458,1.7699,1.7596,1.7627,1.771,1.7771,1.7784,1.7826,1.7917,1.7932,1.7858,1.8007,1.8031,1.8139,1.8179,1.8123,1.8132,1.8427,1.8431,1.8434,1.8428,0,0,0,0,0,0,1.7421,1.7456,1.7495,1.7596,1.7632,1.779,1.7773,1.7789,1.7842,1.7843,1.7947,1.7962,1.8007,1.8125,1.8149,1.8192,1.814,1.8423,1.8428,1.8433,1.8425,1.8431,1.8436,0,0,0,0,0,1.741,1.7488,1.7497,1.7525,1.7684,1.7792,1.7813,1.7862,1.7846,1.7886,1.7944,1.7959,1.8171,1.8135,1.8163,1.8209,1.8421,1.8427,1.8432,1.8422,1.843,1.8436,0,0,0,0,0,0,1.7392,1.7502,1.7514,1.7626,1.7699,1.7798,1.7851,1.7868,1.7948,1.7946,1.8005,1.8028,1.8132,1.8182,1.814,1.8314,1.8295,1.8307,1.8278,1.8286,1.8291,1.8277,1.8148,0,0,0,0,0,1.74,1.7478,1.7571,1.7661,1.7697,1.7767,1.7817,1.7847,1.7926,1.7957,1.8023,1.81,1.8183,1.8238,1.832,1.8432,1.8455,1.8477,1.8483,1.8487,1.8496,1.8557,1.8568,1.8454,1.8454,1.8454,0,0,1.742,1.749,1.7536,1.7659,1.772,1.7799,1.7793,1.7878,1.7938,1.7971,1.8076,1.8127,1.8216,1.8326,1.8378,1.8371,1.8533,1.8494,1.8497,1.8504,1.8564,1.8575,1.8584,1.8458,1.8457,1.8456,0,0,1.7496,1.7557,1.7638,1.7698,1.7788,1.7834,1.7853,1.7949,1.7983,1.8089,1.8115,1.8187,1.833,1.8392,1.8442,1.8538,1.8554,1.8563,1.8593,1.8651,1.866,1.8669,1.8701,1.8713,1.8572,1.8572,1.8572,0,1.751,1.763,1.7678,1.7761,1.7814,1.7845,1.7927,1.7983,1.8096,1.8132,1.8122,1.83,1.8363,1.8487,1.8509,1.855,1.8573,1.8552,1.8655,1.8664,1.8672,1.8704,1.8716,1.8572,1.8572,1.8572,1.8572,0,1.7641,1.7723,1.7778,1.7883,1.7943,1.8025,1.8086,1.814,1.8165,1.8212,1.8319,1.8394,1.8491,1.8523,1.855,1.865,1.8642,1.8643,1.8625,1.8682,1.8713,1.8726,1.8573,1.8573,1.8573,1.8573,0,0,1.7712,1.7841,1.786,1.7907,1.8008,1.8073,1.8156,1.8249,1.8293,1.837,1.8441,1.8559,1.856,1.8616,1.865,1.8702,1.877,1.8696,1.8699,1.8706,1.8884,1.8882,1.8895,1.8782,1.8784,1.8786,1.8876,0,1.7799,1.7947,1.7992,1.8116,1.8192,1.8221,1.8294,1.8363,1.8408,1.848,1.8531,1.8613,1.8608,1.8642,1.8695,1.8751,1.8807,1.8745,1.8848,1.8851,1.8824,1.8912,1.8911,1.8992,1.8888,1.889,1.8892,0,1.7921,1.7996,1.8127,1.8215,1.8249,1.8313,1.84,1.8468,1.8547,1.8577,1.8638,1.8667,1.8754,1.8731,1.8852,1.8809,1.8853,1.8887,1.8891,1.8903,1.8874,1.8924,1.9019,1.903,1.8912,1.891,1.8909,0,1.7957,1.8092,1.8187,1.8227,1.8333,1.8377,1.8424,1.85,1.8552,1.8629,1.8663,1.8749,1.8797,1.8863,1.8914,1.8892,1.903,1.9011,1.9056,1.9055,1.9084,1.9081,1.9186,1.9114,1.9114,1.9113,1.9113,0,1.8049,1.8128,1.8205,1.8263,1.8352,1.8403,1.8489,1.8537,1.8605,1.8673,1.8705,1.8768,1.8832,1.8904,1.8944,1.9037,1.9059,1.9085,1.9095,1.9082,1.9078,1.9112,1.9107,1.9117,1.9116,1.9115,1.9115,0,1.8105,1.816,1.8265,1.8356,1.8381,1.8442,1.852,1.8577,1.8623,1.8709,1.8732,1.8804,1.889,1.8947,1.9058,1.9085,1.9186,1.9195,1.9159,1.9163,1.9205,1.9199,1.9334,1.9353,1.9269,1.927,1.927,0,1.816,1.8221,1.8317,1.8364,1.841,1.8486,1.8538,1.859,1.8644,1.8736,1.8783,1.887,1.8943,1.9079,1.9142,1.9226,1.9237,1.9278,1.925,1.9234,1.9236,1.9231,1.9237,1.9283,1.9283,1.9284,1.9284,0,1.825,1.8274,1.8347,1.843,1.8491,1.8559,1.8627,1.8664,1.8728,1.8787,1.8874,1.893,1.9041,1.9127,1.9217,1.9265,1.9285,1.9292,1.9307,1.9294,1.927,1.9282,1.917,1.9289,1.9289,1.9288,1.9288,1.9288,1.8307,1.8361,1.8436,1.8517,1.8573,1.8635,1.8693,1.8745,1.8818,1.8912,1.8938,1.9029,1.9104,1.9226,1.9276,1.9347,1.9343,1.9365,1.937,1.9375,1.9374,1.9258,1.9364,1.9364,1.9364,1.9364,1.9364,0,1.8398,1.8447,1.852,1.8613,1.8676,1.8688,1.8763,1.8815,1.8894,1.8962,1.9032,1.9131,1.9214,1.9282,1.9368,1.9412,1.9423,1.9433,1.943,1.944,1.9374,1.9352,1.9422,1.9422,1.9422,1.9422,1.9422,1.9422,1.8452,1.8544,1.8576,1.8695,1.8745,1.8832,1.8874,1.8931,1.8986,1.9094,1.9163,1.9206,1.9274,1.9365,1.9441,1.9459,1.9489,1.9496,1.9516,1.9452,1.9445,1.9439,1.9419,1.9502,1.9502,1.9576,1.9577,1.9577]},{"header":{"parameterUnit":"m.s-1","parameterCategory":1,"la1":30.2991,"la2":30.254,"lo1":-89.0895,"lo2":-89.0444,"dy":0.0017,"dx":0.0017,"nx":28,"ny":28,"refTime":"2024-07-30T03:00:00:Z","depth":0,"parameterNumber":3,"parameterNumberName":"V-component_of_WINDS"},"data":[0,0,0,0,0,0,0,0,0,0,0,0,0,0,0,0,0,0,0,0,0,0,0,0,0,0,0,0,0,0,0,0,0,0,0,0,0,0,0,0,0,0,0,0,0,0,0,0,0,0,0,0,0,0,0,0,0,0,3.6841,3.6841,0,3.6797,3.6796,3.6796,3.6797,3.6798,3.6798,3.6799,3.6746,3.6744,3.6742,0,0,0,0,0,0,0,0,0,0,0,0,0,3.692,3.6918,3.6841,3.6841,3.684,3.6797,3.6796,3.6796,3.6797,3.6798,3.6799,3.6799,3.6747,3.6745,3.6742,0,0,0,0,0,0,0,0,0,0,0,0,0,3.6881,3.6918,3.6841,3.6836,3.6835,3.6797,3.6796,3.6796,3.6797,3.6798,3.6799,3.68,3.6748,3.6745,3.6742,3.6705,0,0,3.6733,3.6732,0,0,0,0,0,0,0,0,3.6883,3.6878,3.6837,3.6836,3.6835,3.6804,3.6805,3.6765,3.6797,3.6811,3.6799,3.68,3.6764,3.676,3.6749,3.6702,3.67,3.6733,3.6731,3.6729,3.6729,0,0,0,0,0,0,0,3.6886,3.688,3.6824,3.6837,3.6835,3.6833,3.6829,3.6797,3.6783,3.681,3.681,3.6805,3.6764,3.6752,3.6748,3.6699,3.6733,3.673,3.6728,3.6727,3.6617,3.6616,0,0,0,0,0,0,3.6891,3.6883,3.6825,3.6822,3.6862,3.6831,3.6826,3.6813,3.6783,3.678,3.6804,3.6805,3.6757,3.6752,3.6746,3.6699,3.6729,3.6727,3.6725,3.6618,3.6617,3.6616,0,0,0,0,0,0,3.6893,3.6886,3.6827,3.6852,3.6845,3.6829,3.6814,3.6811,3.68,3.6779,3.6776,3.6796,3.6757,3.675,3.6715,3.6698,3.6725,3.6723,3.6619,3.6618,3.6616,3.6606,0,0,0,0,0,0,3.6895,3.6887,3.6874,3.6852,3.6843,3.6799,3.6813,3.681,3.6796,3.6796,3.677,3.6766,3.6758,3.672,3.6712,3.6694,3.672,3.6621,3.6619,3.6617,3.6608,3.6604,3.6601,0,0,0,0,0,3.6898,3.6872,3.6873,3.6866,3.6828,3.6798,3.6792,3.6785,3.6794,3.678,3.6767,3.6767,3.6701,3.6716,3.6708,3.6688,3.6622,3.6619,3.6617,3.6609,3.6605,3.6601,0,0,0,0,0,0,3.6889,3.6869,3.687,3.6837,3.6819,3.6798,3.678,3.6781,3.6758,3.676,3.6749,3.6743,3.6707,3.6694,3.6711,3.665,3.6662,3.6658,3.6659,3.6655,3.6652,3.6655,3.6718,0,0,0,0,0,3.6884,3.6864,3.6846,3.6818,3.6809,3.6796,3.6783,3.6779,3.6759,3.6751,3.6735,3.6713,3.6688,3.6671,3.6646,3.6606,3.6599,3.6589,3.6585,3.6583,3.6578,3.6554,3.6549,3.6607,3.6607,3.6607,0,0,3.6872,3.6858,3.6846,3.6816,3.6802,3.6778,3.679,3.6765,3.6747,3.6746,3.6712,3.67,3.6675,3.6637,3.6619,3.6625,3.6561,3.6579,3.6577,3.6575,3.6551,3.6546,3.6541,3.6605,3.6606,3.6606,0,0,3.6838,3.6827,3.6802,3.6788,3.6767,3.6758,3.6752,3.6731,3.6723,3.6689,3.6688,3.6665,3.6622,3.6604,3.6589,3.6548,3.6546,3.654,3.6521,3.6498,3.6493,3.6489,3.6472,3.6467,3.6536,3.6536,3.6536,0,3.6825,3.6792,3.6788,3.6763,3.6749,3.675,3.6723,3.6709,3.668,3.6669,3.6676,3.6621,3.6605,3.6562,3.6552,3.654,3.6531,3.6542,3.6495,3.6491,3.6487,3.647,3.6464,3.6535,3.6535,3.6535,3.6535,0,3.6776,3.6753,3.6735,3.671,3.6694,3.6668,3.6657,3.6641,3.6638,3.6628,3.6592,3.6573,3.6543,3.6533,3.6529,3.6489,3.6493,3.6498,3.651,3.648,3.6465,3.6459,3.6534,3.6534,3.6534,3.6535,0,0,3.6735,3.6708,3.6701,3.6689,3.6666,3.6647,3.662,3.6594,3.6579,3.6559,3.6534,3.6497,3.6502,3.6485,3.6479,3.6459,3.6425,3.6466,3.6465,3.6457,3.6376,3.6372,3.6365,3.6425,3.6424,3.6423,3.6378,0,3.6697,3.6653,3.6648,3.6606,3.6584,3.6584,3.656,3.6542,3.6532,3.6509,3.6496,3.647,3.6479,3.6468,3.6449,3.6434,3.6408,3.6437,3.6399,3.6398,3.6404,3.6357,3.6352,3.6311,3.6372,3.6371,3.637,0,3.6647,3.6628,3.6585,3.6565,3.6555,3.6534,3.6509,3.6488,3.6466,3.646,3.6441,3.6438,3.6407,3.6422,3.6378,3.6397,3.6381,3.6371,3.637,3.6364,3.6381,3.6349,3.6298,3.6291,3.6361,3.6362,3.6363,0,3.662,3.6583,3.6552,3.6542,3.6517,3.6502,3.6491,3.6471,3.6455,3.6432,3.6421,3.6394,3.6378,3.6356,3.6344,3.6357,3.63,3.6314,3.6291,3.6292,3.6278,3.6279,3.6222,3.6271,3.6271,3.6271,3.6271,0,3.6577,3.655,3.6539,3.652,3.6489,3.6483,3.6451,3.644,3.6422,3.6398,3.6397,3.6374,3.6361,3.6336,3.6326,3.629,3.6283,3.6275,3.6272,3.6274,3.6275,3.6262,3.6264,3.627,3.627,3.627,3.627,0,3.654,3.6532,3.6498,3.6478,3.6473,3.6451,3.6432,3.6412,3.6402,3.6373,3.6365,3.6348,3.6319,3.6305,3.6268,3.6261,3.6219,3.6219,3.6227,3.6226,3.6203,3.6204,3.6134,3.6124,3.6181,3.6181,3.618,0,3.6513,3.6493,3.6471,3.6457,3.6445,3.6422,3.6406,3.6398,3.6381,3.6355,3.6337,3.6308,3.6284,3.6236,3.6218,3.6189,3.6187,3.6165,3.6183,3.6185,3.6185,3.6185,3.6182,3.6161,3.616,3.616,3.616,0,3.6465,3.6462,3.644,3.6417,3.6399,3.638,3.6361,3.6348,3.6337,3.6318,3.6289,3.627,3.6233,3.6202,3.6172,3.6157,3.6155,3.6155,3.6147,3.6148,3.6153,3.6148,3.6216,3.6156,3.6156,3.6156,3.6157,3.6157,3.643,3.6412,3.6394,3.637,3.6355,3.6337,3.6317,3.6306,3.6282,3.6253,3.6249,3.6217,3.6194,3.6153,3.6137,3.611,3.6115,3.6105,3.6102,3.6099,3.6097,3.6159,3.6105,3.6105,3.6105,3.6105,3.6105,0,3.638,3.6369,3.6347,3.6322,3.6302,3.6306,3.6284,3.6267,3.624,3.622,3.6197,3.6162,3.6132,3.6113,3.6083,3.6065,3.6063,3.6057,3.6057,3.6053,3.6095,3.6104,3.6058,3.6058,3.6058,3.6058,3.6058,3.6058,3.6352,3.6321,3.6315,3.6275,3.6264,3.6234,3.6222,3.6204,3.6188,3.615,3.6127,3.6116,3.6095,3.6063,3.6035,3.603,3.6018,3.6011,3.6006,3.6045,3.605,3.6055,3.6063,3.6009,3.6009,3.5965,3.5965,3.5964]}]]